Regional Weather Roundup
Issued by NWS

Home | Current Version | Previous Version | Graphics & Text | Print | Product List | Glossary On
Versions: 1 2 3 4 5 6 7 8 9 10 11 12 13 14 15 16 17 18 19 20 21 22 23 24 25 26 27 28 29 30 31 32 33 34 35 36 37 38 39 40 41 42 43 44 45 46 47 48 49 50
254
ASUS44 KJAN 241010
RWRMS

MISSISSIPPI HOURLY WEATHER ROUNDUP
NATIONAL WEATHER SERVICE JACKSON MS
500 AM CDT FRI OCT 24 2014

NOTE: "FAIR: INDICATES FEW OR NO CLOUDS BELOW 12,000 FEET WITH NO
SIGNIFICANT WEATHER AND/OR OBSTRUCTIONS TO VISIBILITY.

MSZ001>002-007>008-010>013-018>021-025>028-034>036-241100-
NORTHWEST MISSISSIPPI

CITY           SKY/WX    TMP DP  RH WIND       PRES   REMARKS
CLARKSDALE       N/A     46  46 100 NW3       30.15R VSB 1/2
CLEVELAND      FAIR      46  46 100 NW5       30.13R
GREENWOOD      PTCLDY    46  45  96 SW3       30.13S FOG
GREENVILLE     CLEAR     48  46  93 CALM      30.13S
GRENADA          N/A    N/A N/A N/A MISG        N/A
OLIVE BRANCH   CLEAR     46  46 100 CALM      30.13F
OXFORD         FAIR      46  45  93 CALM      30.14S
TUNICA         SUNNY     46  45  93 CALM      30.14S FOG
$$

MSZ003>006-009-014>017-022>024-029>033-037>039-241100-
NORTHEAST MISSISSIPPI

CITY           SKY/WX    TMP DP  RH WIND       PRES   REMARKS
COLUMBUS AFB   MOCLDY    51  49  91 N5        30.10S
CORINTH        FAIR      50  46  87 CALM      30.12R
GOLDN TRIANGLE CLOUDY    52  45  76 NW3       30.10S
STARKVILLE     FAIR      50  46  87 CALM      30.10S
TUPELO         MOCLDY    50  46  86 CALM      30.11S
$$

MSZ040-058-241100-
CENTRAL MISSISSIPPI

CITY           SKY/WX    TMP DP  RH WIND       PRES   REMARKS
JACKSON INTL   PTCLDY    44  42  93 CALM      30.12R FOG
JACKSON HAWKNS PTCLDY    47  45  93 NW3       30.12R
MERIDIAN KEY   MOCLDY    49  47  93 CALM      30.09S
MERIDIAN NAS   CLOUDY    49  47  93 W6        30.09S
RAYMOND        FAIR      41  37  87 CALM      30.12S HAZE
VICKSBURG      CLEAR     42  41  96 NW3       30.14R FOG
$$

MSZ059>079-241100-
SOUTH MISSISSIPPI

CITY           SKY/WX    TMP DP  RH WIND       PRES   REMARKS
BROOKHAVEN     FAIR      46  46 100 CALM      30.12S
COLUMBIA         N/A    N/A N/A N/A MISG        N/A
HATTIESBURG    CLEAR     48  46  93 CALM      30.10R
MCCOMB         CLEAR     50  47  89 CALM      30.09S
NATCHEZ        MOCLDY    45  41  87 N3        30.13R
PINE BELT      CLEAR     46  43  87 CALM      30.10R
$$

MSZ080>082-241100-
COASTAL MISSISSIPPI

CITY           SKY/WX    TMP DP  RH WIND       PRES   REMARKS
BILOXI         PTCLDY    55  47  75 CALM      30.08R
PASCAGOULA     PTCLDY    49  46  90 CALM      30.07S
GULFPORT       PTCLDY    54  47  77 N5        30.08R
$$



USA.gov is the U.S. government's official web portal to all federal, state and local government web resources and services.